LAN167 SCDA-SCEL

Flight info

Callsign LAN167
Flight time N/A
Altitude 35000
Route ENLUS5B ENLUS UQ803 SIMOK SIMOK6D
Aircraft A321/M-SDE3FGHIRWY/LB1

Departure

Time 2026-05-06 19:41
Airport Diego Aracena International Airport (SCDA)

Arrival

Time N/A
Airport Comodoro Arturo Merino Benítez International Airport (SCEL)
Time Latitude Longitude Altitude Speed Heading
2026-05-06 18:52 -20.54805 -70.17941 175 ft 0 kts 95°
2026-05-06 19:29 -20.54804 -70.17956 174 ft 4 kts 89°
2026-05-06 19:29 -20.54807 -70.17984 174 ft 4 kts 70°
2026-05-06 19:29 -20.54820 -70.18008 175 ft 4 kts 42°
2026-05-06 19:29 -20.54842 -70.18022 175 ft 4 kts 12°
2026-05-06 19:30 -20.54854 -70.18024 175 ft 0 kts
2026-05-06 19:33 -20.54832 -70.18023 175 ft 7 kts
2026-05-06 19:33 -20.54768 -70.18020 175 ft 10 kts
2026-05-06 19:33 -20.54698 -70.18014 174 ft 12 kts
2026-05-06 19:33 -20.54603 -70.18009 174 ft 16 kts
2026-05-06 19:34 -20.54482 -70.18002 174 ft 19 kts
2026-05-06 19:34 -20.54354 -70.17997 174 ft 18 kts
2026-05-06 19:34 -20.54212 -70.17989 175 ft 24 kts
2026-05-06 19:34 -20.54050 -70.17981 175 ft 23 kts
2026-05-06 19:35 -20.53895 -70.17973 175 ft 22 kts
2026-05-06 19:35 -20.53748 -70.17965 175 ft 21 kts
2026-05-06 19:35 -20.53609 -70.17958 175 ft 19 kts
2026-05-06 19:35 -20.53479 -70.17951 175 ft 18 kts
2026-05-06 19:36 -20.53354 -70.17944 175 ft 17 kts
2026-05-06 19:36 -20.53239 -70.17937 175 ft 16 kts
2026-05-06 19:36 -20.53131 -70.17932 174 ft 15 kts
2026-05-06 19:36 -20.53030 -70.17925 174 ft 14 kts
2026-05-06 19:37 -20.52924 -70.17919 174 ft 18 kts
2026-05-06 19:37 -20.52836 -70.17923 174 ft 8 kts 333°
2026-05-06 19:37 -20.52814 -70.17972 174 ft 7 kts 279°
2026-05-06 19:37 -20.52799 -70.18056 175 ft 16 kts 288°
2026-05-06 19:38 -20.52694 -70.18080 175 ft 16 kts
2026-05-06 19:38 -20.52585 -70.18074 176 ft 17 kts
2026-05-06 19:38 -20.52439 -70.18066 175 ft 25 kts
2026-05-06 19:38 -20.52236 -70.18056 174 ft 29 kts
2026-05-06 19:39 -20.52144 -70.18079 175 ft 11 kts 328°
2026-05-06 19:39 -20.52078 -70.18109 175 ft 10 kts 354°
2026-05-06 19:39 -20.52030 -70.18077 175 ft 8 kts 70°
2026-05-06 19:39 -20.52048 -70.18049 175 ft 4 kts 165°
2026-05-06 19:40 -20.52075 -70.18047 175 ft 0 kts 180°
2026-05-06 19:40 -20.52152 -70.18050 175 ft 41 kts 183°
2026-05-06 19:40 -20.52668 -70.18079 175 ft 104 kts 182°
2026-05-06 19:41 -20.53568 -70.18128 175 ft 152 kts 183°
2026-05-06 19:41 -20.54680 -70.18190 497 ft 163 kts 183°
2026-05-06 19:41 -20.55787 -70.18243 1232 ft 157 kts 185°
2026-05-06 19:41 -20.56945 -70.18302 1535 ft 178 kts 185°
2026-05-06 19:42 -20.58242 -70.18372 1820 ft 196 kts 184°
2026-05-06 19:42 -20.59679 -70.18460 1989 ft 220 kts 186°
2026-05-06 19:42 -20.61272 -70.18556 2256 ft 244 kts 185°
2026-05-06 19:42 -20.63028 -70.18652 2761 ft 258 kts 184°
2026-05-06 19:43 -20.64786 -70.18746 3366 ft 266 kts 184°
2026-05-06 19:43 -20.66676 -70.18843 3960 ft 273 kts 184°
2026-05-06 19:43 -20.68558 -70.18919 4625 ft 276 kts 182°
2026-05-06 19:43 -20.70486 -70.18969 5291 ft 278 kts 182°
2026-05-06 19:44 -20.72434 -70.19011 5915 ft 282 kts 182°
2026-05-06 19:44 -20.74407 -70.19052 6520 ft 285 kts 182°
2026-05-06 19:44 -20.76401 -70.19097 7131 ft 288 kts 182°
2026-05-06 19:44 -20.78415 -70.19146 7733 ft 291 kts 182°
2026-05-06 19:45 -20.80448 -70.19199 8282 ft 294 kts 182°
2026-05-06 19:45 -20.82504 -70.19253 8841 ft 297 kts 182°
2026-05-06 19:45 -20.84574 -70.19308 9361 ft 299 kts 182°
2026-05-06 19:45 -20.86663 -70.19365 9881 ft 301 kts 182°
2026-05-06 19:46 -20.88782 -70.19418 10190 ft 313 kts 182°
2026-05-06 19:46 -20.91017 -70.19477 10324 ft 329 kts 182°
2026-05-06 19:46 -20.93362 -70.19541 10462 ft 345 kts 182°
2026-05-06 19:46 -20.95786 -70.19606 10826 ft 351 kts 182°
2026-05-06 19:47 -20.98243 -70.19673 11339 ft 354 kts 181°
2026-05-06 19:47 -21.00713 -70.19741 11896 ft 356 kts 181°
2026-05-06 19:47 -21.03193 -70.19809 12458 ft 357 kts 181°
2026-05-06 19:47 -21.05685 -70.19877 13000 ft 360 kts 181°
2026-05-06 19:48 -21.08201 -70.19944 13510 ft 363 kts 182°
2026-05-06 19:48 -21.10734 -70.20011 14023 ft 366 kts 182°
2026-05-06 19:48 -21.13292 -70.20076 14531 ft 369 kts 182°
2026-05-06 19:48 -21.15870 -70.20144 15052 ft 372 kts 182°
2026-05-06 19:49 -21.18468 -70.20214 15553 ft 375 kts 182°
2026-05-06 19:49 -21.21086 -70.20283 16064 ft 378 kts 182°
2026-05-06 19:49 -21.23723 -70.20351 16559 ft 381 kts 183°
2026-05-06 19:49 -21.26383 -70.20421 17050 ft 384 kts 183°
2026-05-06 19:50 -21.29048 -70.20494 17532 ft 387 kts 183°
2026-05-06 19:50 -21.31768 -70.20574 18014 ft 390 kts 184°
2026-05-06 19:50 -21.34490 -70.20651 18493 ft 393 kts 184°
2026-05-06 19:50 -21.37232 -70.20724 18942 ft 396 kts 184°
2026-05-06 19:51 -21.39999 -70.20794 19375 ft 399 kts 184°
2026-05-06 19:51 -21.42784 -70.20866 19799 ft 402 kts 184°
2026-05-06 19:51 -21.45592 -70.20938 20210 ft 405 kts 184°
2026-05-06 19:51 -21.48418 -70.21011 20611 ft 408 kts 185°
2026-05-06 19:52 -21.51270 -70.21086 21002 ft 411 kts 185°
2026-05-06 19:52 -21.54137 -70.21164 21393 ft 413 kts 185°
2026-05-06 19:52 -21.57017 -70.21245 21771 ft 416 kts 185°
2026-05-06 19:52 -21.59878 -70.21324 22145 ft 419 kts 185°
2026-05-06 19:53 -21.62798 -70.21403 22512 ft 421 kts 185°
2026-05-06 19:53 -21.65739 -70.21481 22861 ft 424 kts 185°
2026-05-06 19:53 -21.68695 -70.21562 23205 ft 426 kts 186°
2026-05-06 19:53 -21.71668 -70.21644 23560 ft 429 kts 186°
2026-05-06 19:54 -21.74661 -70.21725 23901 ft 431 kts 186°
2026-05-06 19:54 -21.77650 -70.21806 24215 ft 433 kts 186°
2026-05-06 19:54 -21.80670 -70.21891 24546 ft 435 kts 186°
2026-05-06 19:54 -21.83689 -70.21976 24862 ft 438 kts 186°
2026-05-06 19:55 -21.86739 -70.22058 25173 ft 440 kts 186°
2026-05-06 19:55 -21.89801 -70.22209 25485 ft 439 kts 191°
2026-05-06 19:55 -21.92825 -70.22660 25788 ft 440 kts 193°
2026-05-06 19:55 -21.95857 -70.23131 26101 ft 441 kts 193°
2026-05-06 19:56 -21.98904 -70.23604 26394 ft 443 kts 193°
2026-05-06 19:56 -22.01961 -70.24080 26697 ft 446 kts 193°
2026-05-06 19:56 -22.05039 -70.24563 26989 ft 448 kts 193°
2026-05-06 19:56 -22.08128 -70.25049 27269 ft 450 kts 193°
2026-05-06 19:57 -22.11213 -70.25536 27549 ft 452 kts 193°
2026-05-06 19:57 -22.14334 -70.26030 27832 ft 454 kts 193°
2026-05-06 19:57 -22.17467 -70.26529 28100 ft 456 kts 193°
2026-05-06 19:57 -22.20615 -70.27034 28373 ft 458 kts 193°
2026-05-06 19:58 -22.23771 -70.27538 28641 ft 460 kts 193°
2026-05-06 19:58 -22.26939 -70.28041 28890 ft 462 kts 193°
2026-05-06 19:58 -22.30124 -70.28542 29131 ft 464 kts 193°
2026-05-06 19:58 -22.33328 -70.29041 29374 ft 465 kts 193°
2026-05-06 19:59 -22.36535 -70.29541 29598 ft 467 kts 193°
2026-05-06 19:59 -22.39763 -70.30047 29810 ft 469 kts 193°
2026-05-06 19:59 -22.43003 -70.30560 30040 ft 471 kts 193°
2026-05-06 19:59 -22.46250 -70.31074 30274 ft 473 kts 193°
2026-05-06 20:00 -22.49513 -70.31589 30501 ft 475 kts 194°
2026-05-06 20:00 -22.52788 -70.32107 30742 ft 476 kts 194°
2026-05-06 20:00 -22.56066 -70.32627 31025 ft 476 kts 194°
2026-05-06 20:00 -22.59347 -70.33146 31376 ft 475 kts 194°
2026-05-06 20:01 -22.62614 -70.33664 31721 ft 475 kts 194°
2026-05-06 20:01 -22.65875 -70.34183 32059 ft 474 kts 194°
2026-05-06 20:01 -22.69139 -70.34703 32396 ft 473 kts 195°
2026-05-06 20:01 -22.72354 -70.35212 32738 ft 472 kts 195°
2026-05-06 20:02 -22.75599 -70.35723 33096 ft 471 kts 195°
2026-05-06 20:02 -22.78840 -70.36232 33436 ft 470 kts 195°
2026-05-06 20:02 -22.82113 -70.36751 33755 ft 469 kts 195°
2026-05-06 20:02 -22.85320 -70.37264 34087 ft 468 kts 196°
2026-05-06 20:03 -22.88527 -70.37723 34398 ft 471 kts 191°
2026-05-06 20:03 -22.91870 -70.37813 34712 ft 475 kts 188°
2026-05-06 20:03 -22.95126 -70.37834 34982 ft 475 kts 188°
2026-05-06 20:03 -22.98410 -70.37851 35047 ft 469 kts 188°
2026-05-06 20:04 -23.04893 -70.37889 35054 ft 464 kts 188°
2026-05-06 20:04 -23.11344 -70.37941 35054 ft 463 kts 188°
2026-05-06 20:05 -23.17793 -70.37999 35054 ft 463 kts 188°
2026-05-06 20:05 -23.23150 -70.38041 35055 ft 463 kts 189°
2026-05-06 20:06 -23.29515 -70.38089 35053 ft 463 kts 189°
2026-05-06 20:06 -23.35968 -70.38139 35051 ft 463 kts 189°
2026-05-06 20:07 -23.42405 -70.38187 35053 ft 463 kts 189°
2026-05-06 20:07 -23.48838 -70.38232 35052 ft 462 kts 189°
2026-05-06 20:08 -23.55273 -70.38283 35050 ft 462 kts 189°
2026-05-06 20:08 -23.61699 -70.38338 35047 ft 462 kts 189°
2026-05-06 20:09 -23.68127 -70.38381 35049 ft 462 kts 189°
2026-05-06 20:09 -23.74562 -70.38429 35048 ft 462 kts 189°
2026-05-06 20:10 -23.80992 -70.38474 35049 ft 463 kts 189°
2026-05-06 20:10 -23.87454 -70.38320 35052 ft 466 kts 187°
2026-05-06 20:11 -23.93940 -70.38028 35056 ft 466 kts 186°
2026-05-06 20:11 -24.00418 -70.37762 35064 ft 465 kts 187°
2026-05-06 20:12 -24.06884 -70.37549 35061 ft 465 kts 188°
2026-05-06 20:12 -24.13298 -70.37348 35061 ft 464 kts 188°
2026-05-06 20:13 -24.19747 -70.37143 35050 ft 464 kts 188°
2026-05-06 20:13 -24.26163 -70.36930 35049 ft 464 kts 188°
2026-05-06 20:14 -24.32673 -70.36713 35047 ft 465 kts 188°
2026-05-06 20:14 -24.39104 -70.36498 35046 ft 466 kts 188°
2026-05-06 20:15 -24.45584 -70.36283 35044 ft 465 kts 188°
2026-05-06 20:15 -24.52062 -70.36062 35045 ft 466 kts 188°
2026-05-06 20:16 -24.58538 -70.35841 35045 ft 465 kts 188°
2026-05-06 20:16 -24.65008 -70.35619 35050 ft 465 kts 188°
2026-05-06 20:17 -24.71479 -70.35403 35046 ft 465 kts 188°
2026-05-06 20:17 -24.77952 -70.35194 35038 ft 465 kts 188°
2026-05-06 20:18 -24.84429 -70.34973 35034 ft 466 kts 188°
2026-05-06 20:18 -24.90913 -70.34740 35028 ft 467 kts 188°
2026-05-06 20:19 -24.97411 -70.34513 35027 ft 468 kts 188°
2026-05-06 20:19 -25.03918 -70.34298 35022 ft 468 kts 189°
2026-05-06 20:20 -25.10427 -70.34082 35020 ft 468 kts 189°
2026-05-06 20:20 -25.16939 -70.33867 35014 ft 468 kts 189°
2026-05-06 20:21 -25.23452 -70.33650 35007 ft 469 kts 189°
2026-05-06 20:21 -25.29990 -70.33425 35009 ft 470 kts 189°
2026-05-06 20:22 -25.36527 -70.33203 35008 ft 470 kts 189°
2026-05-06 20:22 -25.43075 -70.32991 35005 ft 471 kts 189°
2026-05-06 20:23 -25.49640 -70.32769 34996 ft 472 kts 189°
2026-05-06 20:23 -25.56208 -70.32539 34996 ft 472 kts 189°
2026-05-06 20:24 -25.62772 -70.32316 34983 ft 472 kts 190°
2026-05-06 20:24 -25.69341 -70.32097 34982 ft 472 kts 189°
2026-05-06 20:25 -25.75910 -70.31867 34980 ft 473 kts 190°
2026-05-06 20:25 -25.82482 -70.31639 34977 ft 472 kts 190°
2026-05-06 20:26 -25.89054 -70.31428 34979 ft 472 kts 190°
2026-05-06 20:26 -25.95625 -70.31210 34976 ft 472 kts 190°
2026-05-06 20:27 -26.02204 -70.30976 34970 ft 473 kts 190°
2026-05-06 20:27 -26.08736 -70.30994 34966 ft 461 kts 197°
2026-05-06 20:28 -26.15146 -70.31609 34962 ft 462 kts 197°
2026-05-06 20:28 -26.21558 -70.32209 34966 ft 463 kts 197°
2026-05-06 20:29 -26.27984 -70.32785 34966 ft 464 kts 197°
2026-05-06 20:29 -26.34418 -70.33363 34968 ft 463 kts 197°
2026-05-06 20:30 -26.44043 -70.34254 34971 ft 462 kts 197°
2026-05-06 20:31 -26.50453 -70.34850 34969 ft 462 kts 198°
2026-05-06 20:31 -26.56866 -70.35441 34975 ft 462 kts 198°
2026-05-06 20:32 -26.63271 -70.36029 34975 ft 461 kts 197°
2026-05-06 20:32 -26.69617 -70.36616 34977 ft 460 kts 198°
2026-05-06 20:33 -26.76005 -70.37211 34971 ft 460 kts 198°
2026-05-06 20:33 -26.82386 -70.37801 34963 ft 460 kts 198°
2026-05-06 20:34 -26.88759 -70.38395 34970 ft 460 kts 199°
2026-05-06 20:34 -26.95136 -70.38985 34976 ft 459 kts 199°
2026-05-06 20:35 -27.01495 -70.39571 34973 ft 458 kts 199°
2026-05-06 20:35 -27.07850 -70.40168 34965 ft 458 kts 199°
2026-05-06 20:36 -27.14202 -70.40770 34962 ft 458 kts 200°
2026-05-06 20:36 -27.20545 -70.41364 34951 ft 457 kts 200°
2026-05-06 20:37 -27.26882 -70.41953 34944 ft 457 kts 200°
2026-05-06 20:37 -27.33222 -70.42541 34974 ft 457 kts 200°
2026-05-06 20:38 -27.39558 -70.43134 34994 ft 456 kts 200°
2026-05-06 20:38 -27.45883 -70.43731 35005 ft 456 kts 201°
2026-05-06 20:39 -27.52206 -70.44328 35006 ft 456 kts 201°
2026-05-06 20:39 -27.58537 -70.44919 34996 ft 457 kts 201°
2026-05-06 20:40 -27.64870 -70.45510 35004 ft 456 kts 201°
2026-05-06 20:40 -27.71191 -70.46113 34984 ft 455 kts 201°
2026-05-06 20:41 -27.77504 -70.46714 35000 ft 456 kts 201°
2026-05-06 20:41 -27.83830 -70.47306 35014 ft 456 kts 201°
2026-05-06 20:42 -27.90144 -70.47899 35017 ft 455 kts 201°
2026-05-06 20:42 -27.96454 -70.48499 35013 ft 455 kts 202°
2026-05-06 20:43 -28.02751 -70.49101 35017 ft 454 kts 202°
2026-05-06 20:43 -28.09039 -70.49701 35012 ft 453 kts 202°
2026-05-06 20:44 -28.15325 -70.50303 35018 ft 454 kts 202°
2026-05-06 20:44 -28.21624 -70.50903 35022 ft 454 kts 201°
2026-05-06 20:45 -28.27917 -70.51499 35027 ft 454 kts 201°
2026-05-06 20:45 -28.34210 -70.52102 35033 ft 454 kts 201°